Location: Canyon Rim
(40.8777°N, 111.8641°W)
Time: 08:40:02
(UTC+00:00)

ISS - Visible Passes

Search period start: 17 April 2021 00:00
Search period end: 27 April 2021 00:00
Orbit: 418 x 422 km, 51.6° (Epoch: 17 April)

Date Brightness Start Highest point End Pass type
(mag) Time Alt. Az. Time Alt. Az. Time Alt. Az.
24 Apr -1.5 11:29:36 10° S 11:32:04 19° SE 11:34:33 10° E visible
25 Apr -1.0 10:43:51 10° SSE 10:44:54 11° SE 10:45:57 10° ESE visible
26 Apr -3.3 11:31:22 16° SW 11:33:55 57° SE 11:37:15 10° ENE visible
